Year,Month,Day,Hour,Minute,Value (Times are PST for windgust in km/hr)
2010,11,15,00,00,1.60
2010,11,15,00,01,1.60
2010,11,15,00,14,3.20
2010,11,15,00,15,3.20
2010,11,15,00,16,1.60
2010,11,15,00,17,3.20
2010,11,15,00,18,1.60
2010,11,15,00,19,3.20
2010,11,15,00,20,3.20
2010,11,15,00,21,3.20
2010,11,15,00,22,1.60
2010,11,15,00,23,1.60
2010,11,15,00,24,1.60
2010,11,15,00,25,3.20
2010,11,15,00,26,1.60
2010,11,15,00,27,3.20
2010,11,15,00,28,4.80
2010,11,15,00,29,4.80
2010,11,15,00,30,3.20
2010,11,15,00,31,3.20
2010,11,15,00,32,4.80
2010,11,15,00,33,4.80
2010,11,15,00,34,3.20
2010,11,15,00,35,4.80
2010,11,15,00,36,3.20
2010,11,15,00,37,3.20
2010,11,15,00,38,4.80
2010,11,15,00,39,3.20
2010,11,15,00,40,3.20
2010,11,15,00,41,3.20
2010,11,15,00,42,3.20
2010,11,15,00,43,4.80
2010,11,15,00,44,4.80
2010,11,15,00,45,4.80
2010,11,15,00,46,4.80
2010,11,15,00,47,3.20
2010,11,15,00,48,3.20
2010,11,15,00,49,4.80
2010,11,15,00,50,4.80
2010,11,15,00,51,4.80
2010,11,15,00,52,4.80
2010,11,15,00,53,4.80
2010,11,15,00,54,4.80
2010,11,15,00,55,4.80
2010,11,15,00,56,3.20
2010,11,15,00,57,3.20
2010,11,15,00,58,4.80
2010,11,15,00,59,4.80
2010,11,15,01,00,4.80
2010,11,15,01,01,3.20
2010,11,15,01,02,4.80
2010,11,15,01,03,4.80
2010,11,15,01,04,3.20
2010,11,15,01,05,3.20
2010,11,15,01,06,3.20
2010,11,15,01,07,4.80
2010,11,15,01,08,3.20
2010,11,15,01,09,3.20
2010,11,15,01,10,3.20
2010,11,15,01,11,3.20
2010,11,15,01,12,3.20
2010,11,15,01,13,3.20
2010,11,15,01,14,3.20
2010,11,15,01,15,4.80
2010,11,15,01,16,3.20
2010,11,15,01,17,3.20
2010,11,15,01,47,1.60
2010,11,15,01,48,1.60
2010,11,15,01,49,1.60
2010,11,15,01,50,1.60
2010,11,15,02,02,1.60
2010,11,15,02,03,1.60
2010,11,15,02,09,1.60
2010,11,15,02,10,1.60
2010,11,15,02,16,3.20
2010,11,15,02,17,4.80
2010,11,15,02,18,4.80
2010,11,15,02,19,4.80
2010,11,15,02,20,4.80
2010,11,15,02,22,1.60
2010,11,15,02,23,1.60
2010,11,15,02,26,1.60
2010,11,15,02,28,3.20
2010,11,15,02,29,3.20
2010,11,15,02,30,3.20
2010,11,15,02,31,8.10
2010,11,15,02,32,6.40
2010,11,15,02,33,4.80
2010,11,15,02,34,4.80
2010,11,15,02,35,6.40
2010,11,15,02,36,9.60
2010,11,15,02,37,8.10
2010,11,15,02,38,4.80
2010,11,15,02,39,6.40
2010,11,15,02,40,4.80
2010,11,15,02,41,4.80
2010,11,15,02,42,4.80
2010,11,15,02,43,6.40
2010,11,15,02,44,4.80
2010,11,15,02,45,4.80
2010,11,15,02,46,4.80
2010,11,15,02,47,4.80
2010,11,15,02,48,4.80
2010,11,15,02,50,3.20
2010,11,15,02,51,3.20
2010,11,15,02,55,1.60
2010,11,15,02,56,1.60
2010,11,15,02,57,1.60
2010,11,15,02,58,3.20
2010,11,15,02,59,1.60
2010,11,15,03,00,3.20
2010,11,15,03,01,3.20
2010,11,15,03,02,4.80
2010,11,15,03,03,4.80
2010,11,15,03,04,3.20
2010,11,15,03,05,3.20
2010,11,15,03,06,8.10
2010,11,15,03,07,4.80
2010,11,15,03,08,4.80
2010,11,15,03,09,4.80
2010,11,15,03,10,4.80
2010,11,15,03,11,4.80
2010,11,15,03,12,4.80
2010,11,15,03,13,3.20
2010,11,15,03,14,3.20
2010,11,15,03,15,4.80
2010,11,15,03,16,4.80
2010,11,15,03,17,6.40
2010,11,15,03,18,8.10
2010,11,15,03,19,4.80
2010,11,15,03,20,4.80
2010,11,15,03,21,8.10
2010,11,15,03,22,8.10
2010,11,15,03,23,16.10
2010,11,15,03,24,16.10
2010,11,15,03,25,20.90
2010,11,15,03,26,16.10
2010,11,15,03,27,12.90
2010,11,15,03,28,19.30
2010,11,15,03,29,16.10
2010,11,15,03,30,16.10
2010,11,15,03,31,16.10
2010,11,15,03,32,16.10
2010,11,15,03,33,9.60
2010,11,15,03,34,11.30
2010,11,15,03,35,9.60
2010,11,15,03,36,14.50
2010,11,15,03,37,12.90
2010,11,15,03,38,14.50
2010,11,15,03,39,17.70
2010,11,15,03,40,19.30
2010,11,15,03,41,16.10
2010,11,15,03,42,11.30
2010,11,15,03,43,9.60
2010,11,15,03,44,9.60
2010,11,15,03,45,8.10
2010,11,15,03,46,11.30
2010,11,15,03,47,11.30
2010,11,15,03,48,11.30
2010,11,15,03,49,8.10
2010,11,15,03,50,9.60
2010,11,15,03,51,14.50
2010,11,15,03,52,11.30
2010,11,15,03,53,14.50
2010,11,15,03,54,14.50
2010,11,15,03,55,19.30
2010,11,15,03,56,17.70
2010,11,15,03,57,16.10
2010,11,15,03,58,11.30
2010,11,15,03,59,14.50
2010,11,15,04,00,16.10
2010,11,15,04,01,9.60
2010,11,15,04,02,12.90
2010,11,15,04,03,17.70
2010,11,15,04,04,11.30
2010,11,15,04,05,16.10
2010,11,15,04,06,14.50
2010,11,15,04,07,16.10
2010,11,15,04,08,9.60
2010,11,15,04,09,14.50
2010,11,15,04,10,20.90
2010,11,15,04,11,11.30
2010,11,15,04,12,11.30
2010,11,15,04,13,14.50
2010,11,15,04,14,12.90
2010,11,15,04,15,9.60
2010,11,15,04,16,14.50
2010,11,15,04,17,19.30
2010,11,15,04,18,16.10
2010,11,15,04,19,20.90
2010,11,15,04,20,20.90
2010,11,15,04,21,22.50
2010,11,15,04,22,11.30
2010,11,15,04,23,17.70
2010,11,15,04,24,17.70
2010,11,15,04,25,11.30
2010,11,15,04,26,14.50
2010,11,15,04,27,16.10
2010,11,15,04,28,17.70
2010,11,15,04,29,14.50
2010,11,15,04,30,16.10
2010,11,15,04,31,6.40
2010,11,15,04,32,16.10
2010,11,15,04,33,19.30
2010,11,15,04,34,24.20
2010,11,15,04,35,20.90
2010,11,15,04,36,22.50
2010,11,15,04,37,12.90
2010,11,15,04,38,16.10
2010,11,15,04,39,14.50
2010,11,15,04,40,17.70
2010,11,15,04,41,17.70
2010,11,15,04,42,19.30
2010,11,15,04,43,16.10
2010,11,15,04,44,17.70
2010,11,15,04,45,20.90
2010,11,15,04,46,20.90
2010,11,15,04,47,14.50
2010,11,15,04,48,14.50
2010,11,15,04,49,17.70
2010,11,15,04,50,20.90
2010,11,15,04,51,20.90
2010,11,15,04,52,17.70
2010,11,15,04,53,16.10
2010,11,15,04,54,14.50
2010,11,15,04,55,17.70
2010,11,15,04,56,11.30
2010,11,15,04,57,17.70
2010,11,15,04,58,17.70
2010,11,15,04,59,14.50
2010,11,15,05,00,12.90
2010,11,15,05,01,11.30
2010,11,15,05,02,16.10
2010,11,15,05,03,17.70
2010,11,15,05,04,16.10
2010,11,15,05,05,9.60
2010,11,15,05,06,17.70
2010,11,15,05,07,16.10
2010,11,15,05,08,19.30
2010,11,15,05,09,19.30
2010,11,15,05,10,16.10
2010,11,15,05,11,12.90
2010,11,15,05,12,11.30
2010,11,15,05,13,17.70
2010,11,15,05,14,16.10
2010,11,15,05,15,17.70
2010,11,15,05,16,17.70
2010,11,15,05,17,17.70
2010,11,15,05,18,16.10
2010,11,15,05,19,17.70
2010,11,15,05,20,19.30
2010,11,15,05,21,17.70
2010,11,15,05,22,16.10
2010,11,15,05,23,11.30
2010,11,15,05,24,12.90
2010,11,15,05,25,9.60
2010,11,15,05,26,8.10
2010,11,15,05,27,12.90
2010,11,15,05,28,4.80
2010,11,15,05,29,11.30
2010,11,15,05,30,9.60
2010,11,15,05,31,11.30
2010,11,15,05,32,14.50
2010,11,15,05,33,11.30
2010,11,15,05,34,11.30
2010,11,15,05,35,11.30
2010,11,15,05,36,19.30
2010,11,15,05,37,16.10
2010,11,15,05,38,14.50
2010,11,15,05,39,17.70
2010,11,15,05,40,17.70
2010,11,15,05,41,19.30
2010,11,15,05,42,19.30
2010,11,15,05,43,9.60
2010,11,15,05,44,11.30
2010,11,15,05,45,11.30
2010,11,15,05,46,14.50
2010,11,15,05,47,14.50
2010,11,15,05,48,16.10
2010,11,15,05,49,16.10
2010,11,15,05,50,11.30
2010,11,15,05,51,14.50
2010,11,15,05,52,11.30
2010,11,15,05,53,11.30
2010,11,15,05,54,17.70
2010,11,15,05,55,11.30
2010,11,15,05,56,16.10
2010,11,15,05,57,12.90
2010,11,15,05,58,17.70
2010,11,15,05,59,12.90
2010,11,15,06,00,16.10
2010,11,15,06,01,14.50
2010,11,15,06,02,17.70
2010,11,15,06,03,17.70
2010,11,15,06,04,16.10
2010,11,15,06,05,16.10
2010,11,15,06,06,9.60
2010,11,15,06,07,9.60
2010,11,15,06,08,14.50
2010,11,15,06,09,12.90
2010,11,15,06,10,16.10
2010,11,15,06,11,16.10
2010,11,15,06,12,14.50
2010,11,15,06,13,12.90
2010,11,15,06,14,11.30
2010,11,15,06,15,9.60
2010,11,15,06,16,14.50
2010,11,15,06,17,8.10
2010,11,15,06,18,11.30
2010,11,15,06,19,11.30
2010,11,15,06,20,9.60
2010,11,15,06,21,14.50
2010,11,15,06,22,9.60
2010,11,15,06,23,9.60
2010,11,15,06,24,6.40
2010,11,15,06,25,3.20
2010,11,15,06,26,4.80
2010,11,15,06,27,8.10
2010,11,15,06,28,4.80
2010,11,15,06,29,8.10
2010,11,15,06,30,9.60
2010,11,15,06,31,6.40
2010,11,15,06,32,9.60
2010,11,15,06,33,12.90
2010,11,15,06,34,9.60
2010,11,15,06,35,11.30
2010,11,15,06,36,12.90
2010,11,15,06,37,9.60
2010,11,15,06,38,9.60
2010,11,15,06,39,12.90
2010,11,15,06,40,9.60
2010,11,15,06,41,11.30
2010,11,15,06,42,16.10
2010,11,15,06,43,14.50
2010,11,15,06,44,16.10
2010,11,15,06,45,16.10
2010,11,15,06,46,12.90
2010,11,15,06,47,17.70
2010,11,15,06,48,17.70
2010,11,15,06,49,19.30
2010,11,15,06,50,12.90
2010,11,15,06,51,16.10
2010,11,15,06,52,9.60
2010,11,15,06,53,8.10
2010,11,15,06,54,16.10
2010,11,15,06,55,14.50
2010,11,15,06,56,12.90
2010,11,15,06,57,12.90
2010,11,15,06,58,11.30
2010,11,15,06,59,14.50
2010,11,15,07,00,9.60
2010,11,15,07,01,17.70
2010,11,15,07,02,14.50
2010,11,15,07,03,17.70
2010,11,15,07,04,20.90
2010,11,15,07,05,16.10
2010,11,15,07,06,20.90
2010,11,15,07,07,19.30
2010,11,15,07,08,17.70
2010,11,15,07,09,17.70
2010,11,15,07,10,19.30
2010,11,15,07,11,17.70
2010,11,15,07,12,17.70
2010,11,15,07,13,9.60
2010,11,15,07,14,11.30
2010,11,15,07,15,16.10
2010,11,15,07,16,11.30
2010,11,15,07,17,16.10
2010,11,15,07,18,16.10
2010,11,15,07,19,14.50
2010,11,15,07,20,12.90
2010,11,15,07,21,9.60
2010,11,15,07,22,9.60
2010,11,15,07,23,16.10
2010,11,15,07,24,11.30
2010,11,15,07,25,14.50
2010,11,15,07,26,16.10
2010,11,15,07,27,19.30
2010,11,15,07,28,6.40
2010,11,15,07,29,16.10
2010,11,15,07,30,14.50
2010,11,15,07,31,16.10
2010,11,15,07,32,9.60
2010,11,15,07,33,8.10
2010,11,15,07,34,8.10
2010,11,15,07,35,14.50
2010,11,15,07,36,12.90
2010,11,15,07,37,19.30
2010,11,15,07,38,14.50
2010,11,15,07,39,16.10
2010,11,15,07,40,17.70
2010,11,15,07,41,12.90
2010,11,15,07,42,17.70
2010,11,15,07,43,17.70
2010,11,15,07,44,17.70
2010,11,15,07,45,16.10
2010,11,15,07,46,11.30
2010,11,15,07,47,17.70
2010,11,15,07,48,11.30
2010,11,15,07,49,11.30
2010,11,15,07,50,11.30
2010,11,15,07,51,8.10
2010,11,15,07,52,4.80
2010,11,15,07,53,4.80
2010,11,15,07,54,4.80
2010,11,15,07,55,8.10
2010,11,15,07,56,11.30
2010,11,15,07,57,11.30
2010,11,15,07,58,6.40
2010,11,15,07,59,8.10
2010,11,15,08,00,6.40
2010,11,15,08,01,6.40
2010,11,15,08,02,6.40
2010,11,15,08,03,8.10
2010,11,15,08,04,8.10
2010,11,15,08,05,4.80
2010,11,15,08,06,8.10
2010,11,15,08,07,8.10
2010,11,15,08,08,6.40
2010,11,15,08,09,8.10
2010,11,15,08,10,8.10
2010,11,15,08,11,3.20
2010,11,15,08,12,1.60
2010,11,15,08,13,3.20
2010,11,15,08,14,4.80
2010,11,15,08,15,4.80
2010,11,15,08,16,8.10
2010,11,15,08,17,4.80
2010,11,15,08,18,6.40
2010,11,15,08,19,6.40
2010,11,15,08,20,6.40
2010,11,15,08,21,9.60
2010,11,15,08,22,8.10
2010,11,15,08,23,8.10
2010,11,15,08,24,9.60
2010,11,15,08,25,8.10
2010,11,15,08,26,9.60
2010,11,15,08,27,6.40
2010,11,15,08,28,6.40
2010,11,15,08,29,4.80
2010,11,15,08,30,6.40
2010,11,15,08,31,9.60
2010,11,15,08,32,6.40
2010,11,15,08,33,6.40
2010,11,15,08,34,6.40
2010,11,15,08,35,6.40
2010,11,15,08,36,4.80
2010,11,15,08,37,4.80
2010,11,15,08,38,11.30
2010,11,15,08,39,9.60
2010,11,15,08,40,11.30
2010,11,15,08,41,9.60
2010,11,15,08,42,8.10
2010,11,15,08,43,6.40
2010,11,15,08,44,9.60
2010,11,15,08,45,11.30
2010,11,15,08,46,14.50
2010,11,15,08,47,11.30
2010,11,15,08,48,19.30
2010,11,15,08,49,9.60
2010,11,15,08,50,8.10
2010,11,15,08,51,12.90
2010,11,15,08,52,17.70
2010,11,15,08,53,9.60
2010,11,15,08,54,11.30
2010,11,15,08,55,17.70
2010,11,15,08,56,19.30
2010,11,15,08,57,14.50
2010,11,15,08,58,14.50
2010,11,15,08,59,17.70
2010,11,15,09,00,14.50
2010,11,15,09,01,22.50
2010,11,15,09,02,22.50
2010,11,15,09,03,19.30
2010,11,15,09,04,19.30
2010,11,15,09,05,16.10
2010,11,15,09,06,20.90
2010,11,15,09,07,16.10
2010,11,15,09,08,16.10
2010,11,15,09,09,11.30
2010,11,15,09,10,14.50
2010,11,15,09,11,11.30
2010,11,15,09,12,11.30
2010,11,15,09,13,9.60
2010,11,15,09,14,16.10
2010,11,15,09,15,14.50
2010,11,15,09,16,8.10
2010,11,15,09,17,8.10
2010,11,15,09,18,11.30
2010,11,15,09,19,9.60
2010,11,15,09,20,11.30
2010,11,15,09,21,12.90
2010,11,15,09,22,9.60
2010,11,15,09,23,11.30
2010,11,15,09,24,8.10
2010,11,15,09,25,8.10
2010,11,15,09,26,9.60
2010,11,15,09,27,11.30
2010,11,15,09,28,9.60
2010,11,15,09,29,8.10
2010,11,15,09,30,14.50
2010,11,15,09,31,11.30
2010,11,15,09,32,8.10
2010,11,15,09,33,11.30
2010,11,15,09,34,9.60
2010,11,15,09,35,12.90
2010,11,15,09,36,8.10
2010,11,15,09,37,8.10
2010,11,15,09,38,6.40
2010,11,15,09,39,8.10
2010,11,15,09,40,6.40
2010,11,15,09,41,6.40
2010,11,15,09,42,8.10
2010,11,15,09,43,11.30
2010,11,15,09,44,9.60
2010,11,15,09,45,14.50
2010,11,15,09,46,11.30
2010,11,15,09,47,11.30
2010,11,15,09,48,12.90
2010,11,15,09,49,12.90
2010,11,15,09,50,8.10
2010,11,15,09,51,9.60
2010,11,15,09,52,9.60
2010,11,15,09,53,9.60
2010,11,15,09,54,11.30
2010,11,15,09,55,11.30
2010,11,15,09,56,8.10
2010,11,15,09,57,9.60
2010,11,15,09,58,11.30
2010,11,15,09,59,9.60
2010,11,15,10,00,12.90
2010,11,15,10,01,9.60
2010,11,15,10,02,9.60
2010,11,15,10,03,8.10
2010,11,15,10,04,11.30
2010,11,15,10,05,12.90
2010,11,15,10,06,11.30
2010,11,15,10,07,16.10
2010,11,15,10,08,16.10
2010,11,15,10,09,16.10
2010,11,15,10,10,12.90
2010,11,15,10,11,8.10
2010,11,15,10,12,9.60
2010,11,15,10,13,9.60
2010,11,15,10,14,9.60
2010,11,15,10,15,9.60
2010,11,15,10,16,12.90
2010,11,15,10,17,16.10
2010,11,15,10,18,9.60
2010,11,15,10,19,14.50
2010,11,15,10,20,11.30
2010,11,15,10,21,11.30
2010,11,15,10,22,14.50
2010,11,15,10,23,11.30
2010,11,15,10,24,16.10
2010,11,15,10,25,16.10
2010,11,15,10,26,17.70
2010,11,15,10,27,11.30
2010,11,15,10,28,14.50
2010,11,15,10,29,17.70
2010,11,15,10,30,16.10
2010,11,15,10,31,11.30
2010,11,15,10,32,11.30
2010,11,15,10,33,14.50
2010,11,15,10,34,9.60
2010,11,15,10,35,11.30
2010,11,15,10,36,11.30
2010,11,15,10,37,9.60
2010,11,15,10,38,12.90
2010,11,15,10,39,16.10
2010,11,15,10,40,11.30
2010,11,15,10,41,6.40
2010,11,15,10,42,9.60
2010,11,15,10,43,16.10
2010,11,15,10,44,17.70
2010,11,15,10,45,14.50
2010,11,15,10,46,8.10
2010,11,15,10,47,4.80
2010,11,15,10,48,16.10
2010,11,15,10,49,14.50
2010,11,15,10,50,9.60
2010,11,15,10,51,9.60
2010,11,15,10,52,9.60
2010,11,15,10,53,11.30
2010,11,15,10,54,11.30
2010,11,15,10,55,9.60
2010,11,15,10,56,14.50
2010,11,15,10,57,14.50
2010,11,15,10,58,16.10
2010,11,15,10,59,14.50
2010,11,15,11,00,17.70
2010,11,15,11,01,16.10
2010,11,15,11,02,16.10
2010,11,15,11,03,14.50
2010,11,15,11,04,8.10
2010,11,15,11,05,9.60
2010,11,15,11,06,9.60
2010,11,15,11,07,17.70
2010,11,15,11,08,9.60
2010,11,15,11,09,16.10
2010,11,15,11,10,8.10
2010,11,15,11,11,11.30
2010,11,15,11,12,12.90
2010,11,15,11,13,17.70
2010,11,15,11,14,17.70
2010,11,15,11,15,12.90
2010,11,15,11,16,8.10
2010,11,15,11,17,8.10
2010,11,15,11,18,9.60
2010,11,15,11,19,8.10
2010,11,15,11,20,11.30
2010,11,15,11,21,11.30
2010,11,15,11,22,14.50
2010,11,15,11,23,9.60
2010,11,15,11,24,6.40
2010,11,15,11,25,14.50
2010,11,15,11,26,8.10
2010,11,15,11,27,4.80
2010,11,15,11,28,12.90
2010,11,15,11,29,14.50
2010,11,15,11,30,14.50
2010,11,15,11,31,12.90
2010,11,15,11,32,11.30
2010,11,15,11,33,11.30
2010,11,15,11,34,14.50
2010,11,15,11,35,11.30
2010,11,15,11,36,11.30
2010,11,15,11,37,11.30
2010,11,15,11,38,9.60
2010,11,15,11,39,9.60
2010,11,15,11,40,8.10
2010,11,15,11,41,14.50
2010,11,15,11,42,9.60
2010,11,15,11,43,9.60
2010,11,15,11,44,11.30
2010,11,15,11,45,9.60
2010,11,15,11,46,11.30
2010,11,15,11,47,11.30
2010,11,15,11,48,9.60
2010,11,15,11,49,9.60
2010,11,15,11,50,6.40
2010,11,15,11,51,6.40
2010,11,15,11,52,11.30
2010,11,15,11,53,16.10
2010,11,15,11,54,16.10
2010,11,15,11,55,14.50
2010,11,15,11,56,6.40
2010,11,15,11,57,11.30
2010,11,15,11,58,8.10
2010,11,15,11,59,3.20
2010,11,15,12,00,4.80
2010,11,15,12,01,6.40
2010,11,15,12,02,6.40
2010,11,15,12,03,16.10
2010,11,15,12,04,11.30
2010,11,15,12,05,9.60
2010,11,15,12,06,11.30
2010,11,15,12,07,9.60
2010,11,15,12,08,6.40
2010,11,15,12,09,6.40
2010,11,15,12,10,6.40
2010,11,15,12,11,11.30
2010,11,15,12,12,14.50
2010,11,15,12,13,16.10
2010,11,15,12,14,16.10
2010,11,15,12,15,16.10
2010,11,15,12,16,17.70
2010,11,15,12,17,19.30
2010,11,15,12,18,11.30
2010,11,15,12,19,20.90
2010,11,15,12,20,19.30
2010,11,15,12,21,22.50
2010,11,15,12,22,22.50
2010,11,15,12,23,17.70
2010,11,15,12,24,17.70
2010,11,15,12,25,19.30
2010,11,15,12,26,19.30
2010,11,15,12,27,20.90
2010,11,15,12,28,19.30
2010,11,15,12,29,24.20
2010,11,15,12,30,20.90
2010,11,15,12,31,19.30
2010,11,15,12,32,11.30
2010,11,15,12,33,11.30
2010,11,15,12,34,16.10
2010,11,15,12,35,14.50
2010,11,15,12,36,17.70
2010,11,15,12,37,14.50
2010,11,15,12,38,14.50
2010,11,15,12,39,14.50
2010,11,15,12,40,17.70
2010,11,15,12,41,17.70
2010,11,15,12,42,19.30
2010,11,15,12,43,17.70
2010,11,15,12,44,11.30
2010,11,15,12,45,17.70
2010,11,15,12,46,19.30
2010,11,15,12,47,16.10
2010,11,15,12,48,17.70
2010,11,15,12,49,14.50
2010,11,15,12,50,16.10
2010,11,15,12,51,11.30
2010,11,15,12,52,14.50
2010,11,15,12,53,11.30
2010,11,15,12,54,9.60
2010,11,15,12,55,11.30
2010,11,15,12,56,16.10
2010,11,15,12,57,12.90
2010,11,15,12,58,11.30
2010,11,15,12,59,9.60
2010,11,15,13,00,16.10
2010,11,15,13,01,14.50
2010,11,15,13,02,11.30
2010,11,15,13,03,16.10
2010,11,15,13,04,9.60
2010,11,15,13,05,16.10
2010,11,15,13,06,12.90
2010,11,15,13,07,17.70
2010,11,15,13,08,16.10
2010,11,15,13,09,19.30
2010,11,15,13,10,17.70
2010,11,15,13,11,17.70
2010,11,15,13,12,16.10
2010,11,15,13,13,14.50
2010,11,15,13,14,22.50
2010,11,15,13,15,16.10
2010,11,15,13,16,16.10
2010,11,15,13,17,16.10
2010,11,15,13,18,19.30
2010,11,15,13,19,17.70
2010,11,15,13,20,19.30
2010,11,15,13,21,16.10
2010,11,15,13,22,17.70
2010,11,15,13,23,17.70
2010,11,15,13,24,17.70
2010,11,15,13,25,22.50
2010,11,15,13,26,25.70
2010,11,15,13,27,19.30
2010,11,15,13,28,19.30
2010,11,15,13,29,30.60
2010,11,15,13,30,17.70
2010,11,15,13,31,24.20
2010,11,15,13,32,20.90
2010,11,15,13,33,14.50
2010,11,15,13,34,20.90
2010,11,15,13,35,22.50
2010,11,15,13,36,24.20
2010,11,15,13,37,22.50
2010,11,15,13,38,27.40
2010,11,15,13,39,20.90
2010,11,15,13,40,32.20
2010,11,15,13,41,35.40
2010,11,15,13,42,29.00
2010,11,15,13,43,32.20
2010,11,15,13,44,29.00
2010,11,15,13,45,35.40
2010,11,15,13,46,29.00
2010,11,15,13,47,38.60
2010,11,15,13,48,30.60
2010,11,15,13,49,32.20
2010,11,15,13,50,35.40
2010,11,15,13,51,35.40
2010,11,15,13,52,30.60
2010,11,15,13,53,25.70
2010,11,15,13,54,27.40
2010,11,15,13,55,35.40
2010,11,15,13,56,32.20
2010,11,15,13,57,22.50
2010,11,15,13,58,32.20
2010,11,15,13,59,22.50
2010,11,15,14,00,22.50
2010,11,15,14,01,33.80
2010,11,15,14,02,29.00
2010,11,15,14,03,25.70
2010,11,15,14,04,24.20
2010,11,15,14,05,24.20
2010,11,15,14,06,29.00
2010,11,15,14,07,30.60
2010,11,15,14,08,33.80
2010,11,15,14,09,30.60
2010,11,15,14,10,22.50
2010,11,15,14,11,37.00
2010,11,15,14,12,30.60
2010,11,15,14,13,27.40
2010,11,15,14,14,25.70
2010,11,15,14,15,25.70
2010,11,15,14,16,22.50
2010,11,15,14,17,32.20
2010,11,15,14,18,40.20
2010,11,15,14,19,30.60
2010,11,15,14,20,24.20
2010,11,15,14,21,25.70
2010,11,15,14,22,30.60
2010,11,15,14,23,19.30
2010,11,15,14,24,14.50
2010,11,15,14,25,22.50
2010,11,15,14,26,19.30
2010,11,15,14,27,22.50
2010,11,15,14,28,14.50
2010,11,15,14,29,27.40
2010,11,15,14,30,20.90
2010,11,15,14,31,24.20
2010,11,15,14,32,11.30
2010,11,15,14,33,11.30
2010,11,15,14,34,16.10
2010,11,15,14,35,20.90
2010,11,15,14,36,30.60
2010,11,15,14,37,16.10
2010,11,15,14,38,16.10
2010,11,15,14,39,4.80
2010,11,15,14,40,9.60
2010,11,15,14,41,11.30
2010,11,15,14,42,16.10
2010,11,15,14,43,8.10
2010,11,15,14,44,9.60
2010,11,15,14,45,11.30
2010,11,15,14,46,11.30
2010,11,15,14,47,11.30
2010,11,15,14,48,17.70
2010,11,15,14,49,9.60
2010,11,15,14,50,11.30
2010,11,15,14,51,11.30
2010,11,15,14,52,9.60
2010,11,15,14,53,8.10
2010,11,15,14,54,11.30
2010,11,15,14,55,8.10
2010,11,15,14,56,9.60
2010,11,15,14,57,6.40
2010,11,15,14,58,8.10
2010,11,15,14,59,16.10
2010,11,15,15,00,20.90
2010,11,15,15,01,9.60
2010,11,15,15,02,11.30
2010,11,15,15,03,16.10
2010,11,15,15,04,9.60
2010,11,15,15,05,9.60
2010,11,15,15,06,12.90
2010,11,15,15,07,6.40
2010,11,15,15,08,8.10
2010,11,15,15,09,8.10
2010,11,15,15,10,9.60
2010,11,15,15,11,14.50
2010,11,15,15,12,9.60
2010,11,15,15,13,19.30
2010,11,15,15,14,19.30
2010,11,15,15,15,19.30
2010,11,15,15,16,12.90
2010,11,15,15,17,22.50
2010,11,15,15,18,14.50
2010,11,15,15,19,19.30
2010,11,15,15,20,17.70
2010,11,15,15,21,16.10
2010,11,15,15,22,24.20
2010,11,15,15,23,20.90
2010,11,15,15,24,9.60
2010,11,15,15,25,16.10
2010,11,15,15,26,17.70
2010,11,15,15,27,16.10
2010,11,15,15,28,27.40
2010,11,15,15,29,27.40
2010,11,15,15,30,27.40
2010,11,15,15,31,20.90
2010,11,15,15,32,24.20
2010,11,15,15,33,19.30
2010,11,15,15,34,25.70
2010,11,15,15,35,19.30
2010,11,15,15,36,19.30
2010,11,15,15,37,27.40
2010,11,15,15,38,20.90
2010,11,15,15,39,33.80
2010,11,15,15,40,40.20
2010,11,15,15,41,35.40
2010,11,15,15,42,17.70
2010,11,15,15,43,20.90
2010,11,15,15,44,25.70
2010,11,15,15,45,35.40
2010,11,15,15,46,29.00
2010,11,15,15,47,20.90
2010,11,15,15,48,24.20
2010,11,15,15,49,30.60
2010,11,15,15,50,40.20
2010,11,15,15,51,37.00
2010,11,15,15,52,38.60
2010,11,15,15,53,27.40
2010,11,15,15,54,32.20
2010,11,15,15,55,29.00
2010,11,15,15,56,24.20
2010,11,15,15,57,24.20
2010,11,15,15,58,24.20
2010,11,15,15,59,25.70
2010,11,15,16,00,29.00
2010,11,15,16,01,48.30
2010,11,15,16,02,33.80
2010,11,15,16,03,17.70
2010,11,15,16,04,30.60
2010,11,15,16,05,27.40
2010,11,15,16,06,20.90
2010,11,15,16,07,24.20
2010,11,15,16,08,29.00
2010,11,15,16,09,25.70
2010,11,15,16,10,25.70
2010,11,15,16,11,19.30
2010,11,15,16,12,11.30
2010,11,15,16,13,35.40
2010,11,15,16,14,25.70
2010,11,15,16,15,22.50
2010,11,15,16,16,20.90
2010,11,15,16,17,17.70
2010,11,15,16,18,25.70
2010,11,15,16,19,25.70
2010,11,15,16,20,20.90
2010,11,15,16,21,20.90
2010,11,15,16,22,35.40
2010,11,15,16,23,33.80
2010,11,15,16,24,40.20
2010,11,15,16,25,30.60
2010,11,15,16,26,33.80
2010,11,15,16,27,20.90
2010,11,15,16,28,30.60
2010,11,15,16,29,20.90
2010,11,15,16,30,29.00
2010,11,15,16,31,22.50
2010,11,15,16,32,17.70
2010,11,15,16,33,35.40
2010,11,15,16,34,29.00
2010,11,15,16,35,25.70
2010,11,15,16,36,22.50
2010,11,15,16,37,17.70
2010,11,15,16,38,27.40
2010,11,15,16,39,30.60
2010,11,15,16,40,22.50
2010,11,15,16,41,24.20
2010,11,15,16,42,35.40
2010,11,15,16,43,25.70
2010,11,15,16,44,30.60
2010,11,15,16,45,29.00
2010,11,15,16,46,32.20
2010,11,15,16,47,30.60
2010,11,15,16,48,35.40
2010,11,15,16,49,27.40
2010,11,15,16,50,24.20
2010,11,15,16,51,20.90
2010,11,15,16,52,32.20
2010,11,15,16,53,45.10
2010,11,15,16,54,22.50
2010,11,15,16,55,16.10
2010,11,15,16,56,22.50
2010,11,15,16,57,25.70
2010,11,15,16,58,19.30
2010,11,15,16,59,32.20
2010,11,15,17,00,32.20
2010,11,15,17,01,20.90
2010,11,15,17,02,33.80
2010,11,15,17,03,22.50
2010,11,15,17,04,25.70
2010,11,15,17,05,35.40
2010,11,15,17,06,25.70
2010,11,15,17,07,30.60
2010,11,15,17,08,30.60
2010,11,15,17,09,17.70
2010,11,15,17,10,16.10
2010,11,15,17,11,20.90
2010,11,15,17,12,19.30
2010,11,15,17,13,30.60
2010,11,15,17,14,37.00
2010,11,15,17,15,25.70
2010,11,15,17,16,32.20
2010,11,15,17,17,22.50
2010,11,15,17,18,33.80
2010,11,15,17,19,45.10
2010,11,15,17,20,20.90
2010,11,15,17,21,22.50
2010,11,15,17,22,43.50
2010,11,15,17,23,43.50
2010,11,15,17,24,29.00
2010,11,15,17,25,20.90
2010,11,15,17,26,24.20
2010,11,15,17,27,19.30
2010,11,15,17,28,19.30
2010,11,15,17,29,19.30
2010,11,15,17,30,40.20
2010,11,15,17,31,37.00
2010,11,15,17,32,30.60
2010,11,15,17,33,33.80
2010,11,15,17,34,27.40
2010,11,15,17,35,29.00
2010,11,15,17,36,33.80
2010,11,15,17,37,46.70
2010,11,15,17,38,43.50
2010,11,15,17,39,32.20
2010,11,15,17,40,40.20
2010,11,15,17,41,27.40
2010,11,15,17,42,30.60
2010,11,15,17,43,25.70
2010,11,15,17,44,40.20
2010,11,15,17,45,33.80
2010,11,15,17,46,29.00
2010,11,15,17,47,33.80
2010,11,15,17,48,37.00
2010,11,15,17,49,43.50
2010,11,15,17,50,40.20
2010,11,15,17,51,29.00
2010,11,15,17,52,40.20
2010,11,15,17,53,46.70
2010,11,15,17,54,37.00
2010,11,15,17,55,40.20
2010,11,15,17,56,32.20
2010,11,15,17,57,40.20
2010,11,15,17,58,40.20
2010,11,15,17,59,38.60
2010,11,15,18,00,43.50
2010,11,15,18,01,35.40
2010,11,15,18,02,41.80
2010,11,15,18,03,40.20
2010,11,15,18,04,38.60
2010,11,15,18,05,32.20
2010,11,15,18,06,35.40
2010,11,15,18,07,37.00
2010,11,15,18,08,35.40
2010,11,15,18,09,40.20
2010,11,15,18,10,32.20
2010,11,15,18,11,29.00
2010,11,15,18,12,30.60
2010,11,15,18,13,27.40
2010,11,15,18,14,22.50
2010,11,15,18,15,33.80
2010,11,15,18,16,41.80
2010,11,15,18,17,40.20
2010,11,15,18,18,32.20
2010,11,15,18,19,33.80
2010,11,15,18,20,33.80
2010,11,15,18,21,25.70
2010,11,15,18,22,35.40
2010,11,15,18,23,40.20
2010,11,15,18,24,35.40
2010,11,15,18,25,35.40
2010,11,15,18,26,30.60
2010,11,15,18,27,25.70
2010,11,15,18,28,45.10
2010,11,15,18,29,53.10
2010,11,15,18,30,37.00
2010,11,15,18,31,35.40
2010,11,15,18,32,40.20
2010,11,15,18,33,53.10
2010,11,15,18,34,37.00
2010,11,15,18,35,43.50
2010,11,15,18,36,32.20
2010,11,15,18,37,45.10
2010,11,15,18,38,45.10
2010,11,15,18,39,49.90
2010,11,15,18,40,33.80
2010,11,15,18,41,53.10
2010,11,15,18,42,53.10
2010,11,15,18,43,56.30
2010,11,15,18,44,43.50